Temperature
6 6 6 6 6 6 6 6 6 6 6 6 6 6 6 6 6 6 6 6 6 6 5 5 5 5 5 5 4 4 4 4 4 4 3 3 3 3
6 6 6 6 6 6 6 6 6 6 6 6 6 6 6 6 5 5 6 6 5 5 5 5 5 5 4 4 4 4 4 4 4 3 3 3 3 3
5 5 5 5 5 5 5 5 5 5 5 5 5 5 5 5 5 5 5 5 5 5 5 5 4 4 4 4 4 4 3 3 3 3 3 3 2 2
4 4 4 4 5 5 5 5 5 5 5 5 5 5 5 5 5 5 5 4 4 4 4 4 4 4 4 3 3 3 3 3 3 2 2 2 2 2
4 4 4 4 4 4 4 4 4 4 4 4 4 4 4 4 4 4 4 4 4 4 4 4 4 3 3 3 3 3 3 2 2 2 2 2 2 2
3 3 3 3 3 3 3 4 4 4 4 3 3 4 4 4 3 3 3 3 3 3 3 3 3 3 3 2 2 2 2 2 2 2 2 2 1 1
2 2 2 2 2 3 3 3 3 3 3 3 3 3 3 3 3 3 3 3 3 3 3 3 3 2 2 2 2 2 2 1 1 1 1 1 1 1
1 2 2 2 2 2 2 2 2 2 2 2 2 2 3 2 2 2 2 2 2 2 2 2 2 2 2 2 2 1 1 1 1 1 1 1 1 0
1 1 1 1 1 1 1 1 1 1 2 2 2 2 2 2 2 2 2 1 1 1 1 2 2 2 2 1 1 1 1 1 1 0 0 0 0 -0
0 0 0 1 1 1 1 1 1 1 1 1 1 1 1 1 1 1 1 1 1 1 1 1 1 1 1 1 1 1 0 0 0 -0 -0 -0 -0 -0
-0 -0 -0 -0 -0 -0 0 0 0 1 1 1 1 1 1 1 1 1 1 0 0 0 0 -0 0 0 0 0 0 -0 -0 -0 -0 -1 -1 -1 -1 -1
-1 -1 -1 -1 -1 -1 -0 -0 -0 -0 -0 0 0 0 0 0 0 0 -0 -0 -0 -0 -0 -1 -0 -1 -1 -0 -0 -1 -1 -1 -1 -1 -1 -1 -1 -1
-2 -1 -1 -1 -1 -1 -1 -1 -1 -1 -1 -1 -1 -0 -0 -0 -0 -1 -1 -1 -1 -1 -1 -1 -1 -2 -2 -1 -1 -1 -1 -1 -1 -1 -2 -2 -2 -2
-2 -2 -2 -2 -2 -2 -2 -2 -2 -2 -1 -1 -1 -1 -1 -1 -1 -1 -1 -1 -2 -2 -2 -2 -2 -2 -2 -2 -2 -2 -2 -2 -2 -2 -2 -2 -2 -2
-3 -3 -3 -3 -3 -2 -2 -2 -2 -2 -2 -2 -2 -2 -2 -2 -2 -2 -2 -2 -2 -2 -2 -2 -2 -2 -3 -3 -3 -3 -3 -2 -3 -3 -2 -3 -3 -3
-3 -3 -3 -3 -3 -3 -3 -3 -3 -3 -3 -3 -3 -3 -3 -3 -3 -3 -3 -3 -2 -2 -2 -2 -3 -3 -3 -3 -3 -3 -3 -3 -3 -3 -3 -3 -3 -3
-4 -4 -4 -4 -4 -4 -4 -4 -4 -4 -4 -3 -3 -3 -3 -3 -3 -3 -3 -3 -3 -3 -3 -3 -3 -3 -3 -3 -3 -3 -3 -3 -4 -3 -3 -3 -3 -3
-4 -4 -4 -4 -4 -4 -4 -4 -4 -4 -4 -4 -4 -4 -4 -4 -4 -4 -4 -4 -4 -4 -4 -4 -4 -4 -4 -4 -4 -4 -4 -4 -4 -4 -4 -4 -3 -3
-5 -5 -5 -5 -5 -5 -5 -5 -5 -5 -5 -5 -4 -4 -4 -4 -4 -4 -4 -4 -4 -4 -4 -4 -4 -4 -4 -4 -4 -4 -4 -4 -4 -4 -4 -4 -4 -4
-5 -5 -5 -5 -5 -5 -5 -5 -5 -5 -5 -5 -5 -5 -5 -5 -5 -5 -5 -5 -5 -5 -5 -5 -5 -5 -5 -5 -5 -5 -5 -5 -5 -5 -5 -5 -5 -4
-6 -6 -6 -6 -6 -6 -6 -6 -6 -6 -6 -6 -6 -6 -6 -6 -5 -5 -5 -5 -5 -5 -5 -5 -5 -5 -5 -5 -5 -5 -5 -5 -5 -5 -5 -5 -5 -5
-6 -6 -6 -6 -6 -6 -6 -6 -6 -6 -6 -6 -6 -6 -6 -6 -6 -6 -6 -6 -6 -6 -6 -6 -6 -6 -6 -6 -5 -5 -5 -5 -5 -5 -6 -6 -6 -6
-7 -7 -7 -7 -7 -7 -7 -7 -7 -7 -7 -6 -6 -6 -6 -6 -6 -6 -6 -6 -6 -6 -6 -6 -6 -6 -6 -6 -6 -6 -6 -6 -5 -5 -6 -6 -6 -6
Wind_Speed
2 2 2 2 2 2 3 3 4 3 4 3 2 2 5 6 7 6 7 9 9 10 10 9 8 8 8 8 7 7 7 7 7 7 7 8 8 9
2 2 2 1 1 2 3 3 3 3 3 3 3 2 3 4 6 6 8 8 9 10 9 9 9 8 8 8 8 8 7 7 8 8 8 9 9 9
2 3 3 2 2 2 2 2 2 3 4 3 2 1 2 3 3 5 6 7 7 8 9 9 9 9 9 9 9 9 8 8 8 9 9 9 10 10
3 3 3 2 3 2 2 3 3 3 3 4 3 2 2 3 3 3 4 6 7 8 9 9 10 10 10 10 10 9 9 9 9 10 10 10 10 11
3 4 4 3 4 3 3 3 3 3 2 3 3 2 2 2 2 2 2 3 5 7 8 9 10 10 10 10 10 10 10 10 10 10 10 10 11 11
3 3 4 4 5 4 4 4 3 3 3 3 3 3 2 2 2 2 2 2 3 4 6 8 8 9 10 10 10 10 10 10 10 10 10 10 10 11
2 2 3 4 5 4 4 3 4 3 3 3 3 3 3 2 3 2 3 3 3 2 3 4 5 5 7 9 10 10 9 9 9 9 9 9 10 10
3 3 3 3 4 5 5 5 5 4 4 4 4 5 5 4 3 3 2 2 3 2 2 4 3 3 6 7 9 9 8 8 9 9 9 9 10 10
3 3 3 3 4 3 4 5 5 6 6 5 5 6 5 5 4 4 4 4 5 3 1 4 3 4 6 8 9 8 8 8 9 9 10 10 10 11
3 4 4 3 3 3 3 3 3 4 5 5 5 5 5 5 5 4 4 3 3 2 2 3 3 4 5 7 8 9 9 9 9 9 10 10 10 11
3 3 3 3 5 5 4 4 3 4 4 5 6 6 6 6 5 2 2 2 4 3 2 2 3 3 3 4 6 7 8 8 8 9 9 10 10 10
2 2 4 5 5 5 4 4 4 4 3 2 3 3 4 4 5 4 4 4 3 3 2 2 2 1 3 3 3 4 5 7 8 8 9 10 9 7
3 3 3 5 5 5 5 4 5 4 2 2 2 2 2 1 2 3 3 3 4 4 2 2 2 2 3 3 3 3 4 4 5 6 8 9 9 7
3 3 3 4 4 5 4 4 5 3 2 2 2 2 2 2 2 2 2 3 4 5 5 4 3 3 3 4 4 2 3 4 4 4 6 8 9 9
3 4 4 4 4 3 3 3 3 2 2 2 3 3 2 2 1 1 1 1 2 3 4 5 4 4 4 5 5 3 3 3 4 4 5 6 6 6
2 2 3 3 2 2 2 2 1 2 2 3 3 2 1 1 2 2 2 2 2 3 3 4 5 5 5 5 5 5 4 3 3 4 4 5 7 7
2 1 1 1 1 1 1 1 1 1 1 1 2 2 2 2 2 2 2 2 3 3 3 3 3 4 5 5 5 5 4 4 4 4 3 5 5 7
2 1 2 2 2 2 2 1 1 1 2 1 1 2 2 2 3 2 2 3 3 4 3 2 2 2 2 3 6 6 4 4 4 3 3 4 5 5
1 2 2 2 2 2 2 2 2 2 2 2 2 2 2 2 2 3 3 3 4 4 3 3 2 3 4 5 4 6 5 4 3 3 4 4 5 6
1 2 2 2 2 2 2 2 2 2 2 2 2 2 2 3 3 3 3 4 4 4 4 4 4 4 5 5 4 4 7 5 4 5 4 4 4 7
1 1 2 2 2 2 2 2 2 2 3 3 3 3 3 3 3 4 4 4 4 4 5 5 5 5 3 2 3 4 4 7 7 5 4 3 3 3
1 2 2 2 2 2 2 2 2 2 3 3 3 3 3 3 4 4 4 4 4 5 5 4 3 2 3 4 5 5 4 3 5 7 7 6 3 3
2 2 2 2 2 2 3 3 3 3 3 3 3 3 3 3 4 4 4 4 4 5 4 4 3 3 4 4 5 4 5 4 2 3 4 7 9 10
Wind_Direction
210 203 215 227 197 190 176 178 178 212 243 239 234 232 224 225 232 230 235 241 241 242 246 252 253 253 257 262 267 270 273 274 274 275 279 285 291 295
203 201 217 232 217 195 189 194 193 197 232 240 231 235 217 233 238 233 237 242 242 242 243 247 251 252 254 255 257 260 263 272 272 270 272 278 283 288
215 210 223 219 217 214 205 195 197 191 229 263 262 250 214 227 247 237 237 240 245 244 246 248 251 255 254 253 254 255 258 265 267 266 269 273 277 282
222 219 231 226 222 222 216 214 212 202 208 246 264 249 238 233 239 238 245 245 247 248 248 250 253 255 255 255 254 253 256 259 263 264 268 271 274 279
224 224 231 219 228 227 222 221 219 214 204 223 248 251 250 240 248 267 263 262 258 252 249 252 253 254 256 257 254 253 256 258 261 263 265 269 273 277
225 227 229 224 227 221 223 221 215 211 205 210 235 245 246 238 218 245 275 272 269 259 260 258 255 256 259 258 254 253 256 258 262 265 265 269 272 276
240 239 240 242 242 231 231 222 209 213 212 219 231 238 237 229 229 226 253 277 277 257 279 275 265 265 266 263 259 254 255 260 266 269 270 273 274 276
241 250 258 260 258 249 245 236 222 220 223 228 237 237 240 234 227 226 235 263 271 259 240 271 263 259 269 265 260 256 255 262 267 270 272 275 276 277
235 243 257 256 260 256 255 253 249 244 234 231 235 237 237 228 217 228 232 240 251 243 240 264 261 262 271 263 262 258 259 264 266 269 274 276 276 276
238 234 236 244 243 241 235 245 254 257 247 240 238 240 237 226 220 227 230 244 275 270 213 251 266 268 284 270 260 260 263 265 269 273 274 276 277 278
247 237 230 239 249 245 235 235 255 271 267 251 248 253 247 236 220 198 216 234 263 258 217 228 259 282 279 270 267 263 264 270 273 275 276 280 280 281
257 250 246 244 247 244 232 226 244 260 268 276 270 268 259 241 230 217 213 231 255 256 224 210 243 272 286 275 277 273 270 276 277 277 281 283 282 282
250 258 254 251 254 252 247 236 238 244 249 242 248 258 267 257 241 235 220 222 236 250 218 192 230 233 238 273 282 278 276 282 282 280 284 284 282 277
246 254 249 255 263 265 264 251 244 244 236 232 229 241 249 259 269 262 253 251 250 247 235 215 228 233 244 263 269 282 281 269 269 277 288 289 287 281
244 244 249 256 266 274 269 264 251 228 217 228 236 248 258 264 271 288 300 291 298 277 254 247 234 230 233 246 258 262 277 277 266 273 281 281 277 278
242 232 247 261 272 270 275 286 278 230 223 229 237 248 256 257 257 258 259 264 279 288 296 270 251 234 240 242 242 254 250 254 272 278 284 282 276 269
216 223 227 239 253 262 275 273 255 258 258 247 231 245 253 256 264 257 245 249 252 267 287 304 306 277 254 235 243 246 250 257 257 273 278 277 269 268
205 191 205 213 223 228 237 249 253 248 254 245 236 234 242 250 260 257 243 238 246 255 264 270 285 304 297 274 237 238 246 251 260 263 255 263 269 271
184 194 205 215 229 239 239 247 257 257 257 237 235 241 247 252 256 259 255 250 251 254 255 249 251 248 257 269 268 230 227 248 257 256 248 245 259 272
194 204 214 219 225 237 244 251 259 263 259 249 243 246 249 253 252 257 258 255 255 261 261 252 243 239 236 244 255 263 248 238 237 246 255 263 269 280
245 234 234 230 231 235 243 246 246 249 256 251 245 244 249 247 252 255 260 264 263 256 255 256 255 257 250 235 262 270 267 252 242 241 239 259 277 275
275 254 251 247 241 236 240 242 246 250 256 249 247 247 248 248 252 257 256 255 258 259 261 264 270 258 233 234 248 259 270 284 283 270 253 242 229 235
283 268 256 251 247 243 237 237 241 250 248 248 249 248 247 249 251 252 255 254 255 260 263 264 266 254 245 235 241 248 257 268 273 285 285 285 271 270
Height
1536 1537 1539 1540 1542 1543 1544 1545 1547 1545 1545 1546 1547 1548 1549 1549 1550 1550 1550 1550 1550 1550 1550 1550 1550 1550 1549 1549 1549 1548 1548 1547 1546 1545 1544 1543 1542 1541
1532 1533 1535 1536 1538 1539 1540 1541 1542 1543 1542 1542 1543 1544 1545 1546 1546 1546 1546 1546 1546 1546 1546 1546 1546 1546 1545 1545 1545 1544 1544 1543 1542 1541 1540 1539 1538 1537
1527 1529 1530 1532 1533 1535 1536 1537 1538 1539 1538 1538 1539 1540 1541 1541 1542 1542 1542 1542 1541 1542 1542 1542 1542 1541 1541 1541 1540 1540 1539 1538 1538 1537 1536 1535 1534 1533
1523 1525 1526 1528 1529 1530 1532 1533 1534 1534 1535 1534 1534 1535 1536 1537 1537 1537 1537 1537 1537 1537 1537 1537 1537 1537 1536 1536 1536 1535 1535 1534 1533 1532 1532 1531 1530 1529
1519 1520 1522 1523 1524 1526 1527 1528 1529 1530 1530 1530 1530 1531 1531 1532 1532 1532 1533 1533 1533 1533 1532 1532 1532 1532 1531 1531 1531 1530 1530 1529 1528 1528 1527 1526 1525 1524
1515 1516 1517 1519 1520 1521 1522 1523 1524 1525 1525 1525 1525 1526 1526 1527 1527 1527 1527 1528 1528 1528 1528 1527 1527 1527 1526 1526 1526 1525 1525 1524 1523 1522 1522 1521 1520 1519
1510 1511 1512 1514 1515 1516 1517 1518 1519 1519 1520 1520 1520 1521 1521 1521 1522 1522 1522 1523 1523 1523 1523 1523 1522 1522 1521 1521 1520 1520 1519 1519 1518 1517 1517 1516 1515 1514
1505 1506 1507 1509 1510 1511 1512 1513 1514 1515 1515 1515 1515 1516 1516 1516 1517 1517 1517 1517 1517 1518 1518 1517 1517 1516 1516 1515 1515 1514 1514 1513 1512 1512 1511 1510 1510 1509
1501 1501 1502 1504 1505 1505 1506 1508 1508 1509 1510 1511 1510 1511 1511 1512 1512 1512 1512 1512 1512 1513 1513 1511 1512 1511 1511 1510 1510 1509 1509 1508 1507 1507 1506 1505 1504 1503
1496 1497 1498 1498 1500 1500 1501 1502 1503 1503 1504 1505 1505 1506 1507 1507 1507 1508 1507 1508 1508 1508 1508 1506 1505 1505 1505 1505 1505 1504 1503 1503 1502 1501 1500 1500 1499 1498
1491 1492 1493 1494 1494 1495 1496 1497 1497 1498 1499 1499 1500 1501 1501 1502 1502 1502 1502 1502 1501 1501 1502 1501 1500 1500 1499 1499 1499 1499 1498 1497 1497 1496 1495 1494 1493 1492
1486 1487 1488 1489 1490 1490 1491 1492 1492 1492 1493 1494 1494 1495 1496 1496 1497 1497 1497 1497 1496 1496 1496 1497 1495 1495 1494 1493 1494 1493 1493 1492 1491 1490 1490 1489 1488 1487
1481 1482 1483 1484 1485 1485 1486 1487 1487 1488 1488 1488 1488 1489 1490 1490 1491 1491 1492 1492 1492 1491 1492 1492 1491 1490 1490 1488 1488 1488 1487 1486 1486 1485 1484 1483 1483 1482
1477 1478 1478 1479 1480 1481 1481 1482 1482 1483 1483 1483 1483 1483 1484 1485 1485 1486 1486 1487 1486 1486 1486 1487 1486 1485 1485 1483 1482 1482 1482 1481 1480 1479 1479 1478 1477 1476
1473 1473 1474 1475 1475 1476 1476 1477 1477 1478 1478 1478 1478 1478 1479 1480 1480 1480 1481 1481 1481 1481 1481 1481 1481 1480 1480 1478 1477 1477 1476 1476 1475 1474 1474 1473 1472 1471
1468 1469 1470 1470 1471 1471 1472 1472 1473 1473 1473 1473 1473 1474 1474 1475 1475 1475 1475 1475 1475 1475 1475 1475 1475 1475 1474 1473 1473 1471 1471 1470 1470 1469 1468 1468 1467 1466
1464 1465 1465 1466 1466 1466 1467 1467 1468 1468 1469 1469 1469 1469 1469 1470 1470 1471 1471 1470 1470 1469 1469 1469 1469 1469 1469 1468 1467 1466 1466 1465 1465 1464 1463 1462 1462 1461
1460 1460 1460 1461 1462 1462 1462 1463 1463 1464 1464 1464 1464 1465 1465 1465 1465 1465 1465 1465 1464 1464 1464 1464 1464 1463 1463 1462 1463 1461 1461 1460 1460 1459 1458 1457 1456 1456
1456 1456 1457 1457 1458 1458 1459 1459 1459 1460 1460 1460 1460 1460 1460 1460 1460 1460 1460 1460 1460 1459 1459 1459 1459 1458 1457 1456 1456 1457 1456 1455 1455 1454 1453 1452 1451 1451
1452 1452 1453 1454 1454 1455 1455 1455 1456 1456 1456 1456 1456 1456 1456 1456 1456 1455 1455 1455 1455 1455 1454 1454 1454 1454 1453 1453 1451 1451 1452 1451 1450 1449 1448 1448 1447 1447
1449 1449 1450 1450 1451 1451 1452 1452 1452 1452 1452 1452 1451 1451 1451 1451 1451 1451 1450 1450 1450 1450 1449 1449 1449 1450 1449 1449 1448 1446 1447 1446 1446 1445 1444 1443 1441 1440
1446 1446 1447 1447 1447 1448 1448 1448 1448 1448 1448 1447 1447 1447 1447 1447 1446 1446 1446 1446 1445 1445 1445 1445 1444 1444 1444 1443 1442 1442 1441 1442 1441 1441 1440 1439 1437 1435
1443 1443 1443 1444 1444 1444 1444 1444 1444 1443 1443 1443 1443 1442 1442 1442 1442 1442 1442 1441 1441 1441 1440 1440 1439 1439 1439 1438 1438 1437 1437 1437 1436 1436 1436 1435 1435 1433